This demonstration page uses our WeatherBlox Daily Observations layout. Learn more.

Left ArrowRight Arrow

Hourly Observations for June 11, 2015

Temp ( °F °C ) Dew Point ( °F °C ) Humidity (%) Winds ( mph kmh ) Pressure ( in mb ) Visibility ( mi km ) Precip ( " mm )
12:53 am 00:53 Clear 57 13.9 53 11.7 87 87 E 10 17 29.84 1011 10 16 0.00 0.00
1:53 am 01:53 Clear 55 12.8 53 11.7 93 93 ENE 7 11 29.84 1011 10 16 0.00 0.00
2:53 am 02:53 Clear 52 11.1 51 10.6 97 97 Calm 29.85 1011 10 16 0.00 0.00
3:53 am 03:53 Clear 51 10.6 50 10 96 96 Calm 29.85 1011 10 16 0.00 0.00
4:37 am 04:37 Mostly Clear with Mist and Fog 50 10 49 9.4 96 96 ESE 3 6 29.88 1012 2 3 0.00 0.00
4:45 am 04:45 Mostly Clear with Mist and Fog 48 8.9 47 8.3 96 96 ESE 3 6 29.88 1012 3 5 0.00 0.00
4:53 am 04:53 Partly Cloudy with Mist and Fog 48 8.9 47 8.3 96 96 Calm 29.85 1011 4 6 0.00 0.00
4:58 am 04:58 Mostly Cloudy with Mist and Fog 48 9 46 8 94 94 Calm 29.88 1012 3 4 0.00 0.00
5:09 am 05:09 Mostly Cloudy with Mist and Fog 49 9.4 48 8.9 97 97 Calm 29.88 1012 3 5 0.00 0.00
5:29 am 05:29 Mostly Cloudy with Mist and Fog 47 8.3 46 7.8 97 97 WNW 3 6 29.91 1013 1 1 0.00 0.00
5:37 am 05:37 Mostly Cloudy with Fog 47 8.3 46 7.8 97 97 Calm 29.91 1013 0 0 0.00 0.00
5:47 am 05:47 Mostly Cloudy with Mist and Fog 46 8 46 8 100 100 Calm 29.91 1013 1 2 0.00 0.00
5:51 am 05:51 Cloudy with Mist and Fog 46 8 46 8 100 100 Calm 29.91 1013 2 3 0.00 0.00
5:53 am 05:53 Cloudy with Mist and Fog 47 8.3 47 8.3 100 100 Calm 29.88 1012 3 4 0.00 0.00
5:57 am 05:57 Cloudy with Mist and Fog 48 8.9 47 8.3 96 96 Calm 29.88 1012 1 2 0.00 0.00
6:07 am 06:07 Cloudy with Mist and Fog 48 8.9 48 8.9 100 100 ESE 5 7 29.88 1012 2 3 0.00 0.00
6:10 am 06:10 Cloudy with Mist and Fog 48 9 48 9 100 100 ESE 5 7 29.88 1012 1 2 0.00 0.00
6:17 am 06:17 Mostly Cloudy with Fog 51 10.6 50 10 96 96 E 5 7 29.88 1012 0 0 0.00 0.00
6:53 am 06:53 Mostly Cloudy with Fog 51 10.6 51 10.6 100 100 ENE 3 6 29.86 1011 0 0 0.00 0.00
7:22 am 07:22 Mostly Cloudy with Fog 54 12 54 12 100 100 N 3 6 29.85 1011 1 1 0.00 0.00
7:41 am 07:41 Cloudy with Mist and Fog 53 11.7 53 11.7 100 100 NNW 5 7 29.85 1011 2 2 0.00 0.00
7:53 am 07:53 Cloudy with Mist and Fog 54 12.2 53 11.7 97 97 Calm 29.87 1011 3 4 0.00 0.00
8:00 am 08:00 Mostly Cloudy with Mist and Fog 55 13 54 12 94 94 WNW 3 6 29.85 1011 6 10 0.00 0.00
8:14 am 08:14 Partly Cloudy 55 13 54 12 94 94 NE 3 6 29.85 1011 10 16 0.00 0.00
8:53 am 08:53 Sunny 63 17.2 54 12.2 73 73 Calm 29.85 1011 10 16 0.00 0.00
9:53 am 09:53 Sunny 69 20.6 56 13.3 63 63 ESE 3 6 29.84 1011 10 16 0.00 0.00
10:53 am 10:53 Sunny 73 22.8 56 13.3 55 55 E 6 9 29.82 1010 10 16 0.00 0.00
11:53 am 11:53 Sunny 77 25 55 12.8 47 47 VRB 3 6 29.79 1009 10 16 0.00 0.00
12:53 pm 12:53 Sunny 82 27.8 54 12.2 38 38 SSW 13 20 29.76 1008 10 16 0.00 0.00
1:53 pm 13:53 Sunny 85 29.4 51 10.6 31 31 SSW 14 22 29.73 1007 10 16 0.00 0.00
2:53 pm 14:53 Sunny 87 30.6 49 9.4 27 27 SSW 14 22 29.71 1006 10 16 0.00 0.00
3:53 pm 15:53 Sunny 89 31.7 47 8.3 23 23 W 10 17 29.69 1006 10 16 0.00 0.00
4:53 pm 16:53 Mostly Sunny 88 31.1 47 8.3 24 24 SSW 16 26 29.68 1005 10 16 0.00 0.00
5:53 pm 17:53 Sunny 88 31.1 49 9.4 26 26 SSW 12 19 29.66 1005 10 16 0.00 0.00
6:53 pm 18:53 Sunny 87 30.6 51 10.6 29 29 S 15 24 29.64 1004 10 16 0.00 0.00
7:53 pm 19:53 Sunny 84 28.9 52 11.1 33 33 S 13 20 29.62 1003 10 16 0.00 0.00
8:53 pm 20:53 Sunny 79 26.1 52 11.1 39 39 S 14 22 29.61 1003 10 16 0.00 0.00
9:53 pm 21:53 Clear 76 24.4 52 11.1 43 43 S 13 20 29.60 1002 10 16 0.00 0.00
10:53 pm 22:53 Clear 77 25 49 9.4 37 37 S 17 28 29.58 1002 10 16 0.00 0.00
11:53 pm 23:53 Clear 69 20.6 51 10.6 53 53 SW 9 15 29.60 1002 10 16 0.00 0.00

Powered by AerisWeather